Time,TemperatureF,DewpointF,PressureIn,WindDirection,WindDirectionDegrees,WindSpeedMPH,WindSpeedGustMPH,Humidity,HourlyPrecipIn,Conditions,Clouds,dailyrainin,SoftwareType,DateUTC
2013-04-06 00:07:00,44.1,-50.6,29.88,WNW,292,0.0,-999.0,1,-99.99,,,0.00,Acu-Link.com,2013-04-06 05:07:00,
2013-04-06 00:22:00,43.5,-50.9,29.88,NNE,22,0.0,-999.0,1,-99.99,,,0.00,Acu-Link.com,2013-04-06 05:22:00,
2013-04-06 00:37:00,42.8,-51.4,29.88,NNE,22,0.0,-999.0,1,-99.99,,,0.00,Acu-Link.com,2013-04-06 05:37:00,
2013-04-06 00:52:00,42.4,-51.6,29.88,West,270,0.0,-999.0,1,-99.99,,,0.00,Acu-Link.com,2013-04-06 05:52:00,
2013-04-06 01:07:00,41.7,-52.1,29.88,NNE,22,0.0,-999.0,1,-99.99,,,0.00,Acu-Link.com,2013-04-06 06:07:00,
2013-04-06 01:22:00,41.5,-52.2,29.87,NNE,22,0.0,-999.0,1,-99.99,,,0.00,Acu-Link.com,2013-04-06 06:22:00,
2013-04-06 01:37:00,41.9,-51.9,29.88,West,270,0.0,-999.0,1,-99.99,,,0.00,Acu-Link.com,2013-04-06 06:37:00,
2013-04-06 01:52:00,41.2,-52.4,29.87,East,90,0.0,-999.0,1,-99.99,,,0.00,Acu-Link.com,2013-04-06 06:52:00,
2013-04-06 02:08:00,41.0,-52.5,29.87,East,90,0.0,-999.0,1,-99.99,,,0.00,Acu-Link.com,2013-04-06 07:08:00,
2013-04-06 02:23:00,40.8,-52.6,29.86,East,90,0.0,-999.0,1,-99.99,,,0.00,Acu-Link.com,2013-04-06 07:23:00,
2013-04-06 02:38:00,41.5,-52.2,29.85,South,180,0.0,-999.0,1,-99.99,,,0.00,Acu-Link.com,2013-04-06 07:38:00,
2013-04-06 02:53:00,41.0,-52.5,29.85,NE,45,0.0,-999.0,1,-99.99,,,0.00,Acu-Link.com,2013-04-06 07:53:00,
2013-04-06 03:10:00,41.2,-52.4,29.85,NW,315,0.0,-999.0,1,-99.99,,,0.00,Acu-Link.com,2013-04-06 08:10:00,
2013-04-06 03:25:00,40.5,-52.8,29.85,NNE,22,0.0,-999.0,1,-99.99,,,0.00,Acu-Link.com,2013-04-06 08:25:00,
2013-04-06 03:40:00,39.9,-53.2,29.85,NNE,22,0.0,-999.0,1,-99.99,,,0.00,Acu-Link.com,2013-04-06 08:40:00,
2013-04-06 03:55:00,39.9,-53.2,29.86,NW,315,0.0,-999.0,1,-99.99,,,0.00,Acu-Link.com,2013-04-06 08:55:00,
2013-04-06 04:10:00,39.4,-53.5,29.86,NW,315,0.0,-999.0,1,-99.99,,,0.00,Acu-Link.com,2013-04-06 09:10:00,
2013-04-06 04:25:00,39.6,-53.3,29.85,SSE,157,0.0,-999.0,1,-99.99,,,0.00,Acu-Link.com,2013-04-06 09:25:00,
2013-04-06 04:41:00,39.4,-53.5,29.85,SSE,157,0.0,-999.0,1,-99.99,,,0.00,Acu-Link.com,2013-04-06 09:41:00,
2013-04-06 05:26:00,39.9,-53.2,29.86,WNW,292,0.0,-999.0,1,-99.99,,,0.00,Acu-Link.com,2013-04-06 10:26:00,
2013-04-06 05:56:00,39.9,-53.2,29.87,North,0,0.0,-999.0,1,-99.99,,,0.00,Acu-Link.com,2013-04-06 10:56:00,
2013-04-06 06:11:00,39.4,-53.5,29.88,East,90,0.0,-999.0,1,-99.99,,,0.00,Acu-Link.com,2013-04-06 11:11:00,
2013-04-06 06:27:00,39.4,-53.5,29.88,East,90,0.0,-999.0,1,-99.99,,,0.00,Acu-Link.com,2013-04-06 11:27:00,
2013-04-06 06:42:00,39.6,-53.3,29.88,SSE,157,0.0,-999.0,1,-99.99,,,0.00,Acu-Link.com,2013-04-06 11:42:00,
2013-04-06 06:57:00,39.6,-53.3,29.89,SSE,157,0.0,-999.0,1,-99.99,,,0.00,Acu-Link.com,2013-04-06 11:57:00,
2013-04-06 07:14:00,38.8,-53.8,29.89,NE,45,0.0,-999.0,1,-99.99,,,0.00,Acu-Link.com,2013-04-06 12:14:00,
2013-04-06 07:47:00,42.1,-51.8,29.90,NNW,337,0.0,-999.0,1,-99.99,,,0.00,Acu-Link.com,2013-04-06 12:47:00,
2013-04-06 08:02:00,45.1,-50.0,29.90,SE,135,0.0,-999.0,1,-99.99,,,0.00,Acu-Link.com,2013-04-06 13:02:00,
2013-04-06 08:32:00,50.0,-46.9,29.91,ESE,112,0.0,-999.0,1,-99.99,,,0.00,Acu-Link.com,2013-04-06 13:32:00,
2013-04-06 08:47:00,52.0,-45.7,29.90,East,90,0.0,-999.0,1,-99.99,,,0.00,Acu-Link.com,2013-04-06 13:47:00,
2013-04-06 09:02:00,54.5,-44.2,29.90,SSE,157,4.7,-999.0,1,-99.99,,,0.00,Acu-Link.com,2013-04-06 14:02:00,
2013-04-06 09:17:00,57.6,57.0,29.90,SE,135,0.0,-999.0,98,-99.99,,,0.00,Acu-Link.com,2013-04-06 14:17:00,
2013-04-06 09:32:00,60.4,-40.6,29.90,South,180,4.2,-999.0,1,-99.99,,,0.00,Acu-Link.com,2013-04-06 14:32:00,
2013-04-06 09:48:00,61.9,-39.7,29.91,SSE,157,3.7,-999.0,1,-99.99,,,0.00,Acu-Link.com,2013-04-06 14:48:00,
2013-04-06 10:03:00,62.8,-39.2,29.90,SSE,157,2.7,-999.0,1,-99.99,,,0.00,Acu-Link.com,2013-04-06 15:03:00,
2013-04-06 10:18:00,64.8,-37.9,29.91,SSE,157,3.7,-999.0,1,-99.99,,,0.00,Acu-Link.com,2013-04-06 15:18:00,
2013-04-06 10:33:00,66.6,-36.9,29.90,SSW,202,2.2,-999.0,1,-99.99,,,0.00,Acu-Link.com,2013-04-06 15:33:00,
2013-04-06 10:48:00,67.3,-36.4,29.90,SSW,202,4.2,-999.0,1,-99.99,,,0.00,Acu-Link.com,2013-04-06 15:48:00,
2013-04-06 11:03:00,68.2,-35.9,29.89,SSE,157,7.3,-999.0,1,-99.99,,,0.00,Acu-Link.com,2013-04-06 16:03:00,
2013-04-06 11:18:00,67.6,-36.3,29.89,SW,225,4.2,-999.0,1,-99.99,,,0.00,Acu-Link.com,2013-04-06 16:18:00,
2013-04-06 12:04:00,73.0,-33.0,29.88,SSE,157,6.8,-999.0,1,-99.99,,,0.00,Acu-Link.com,2013-04-06 17:04:00,
2013-04-06 12:19:00,73.2,-32.9,29.88,ESE,112,4.7,-999.0,1,-99.99,,,0.00,Acu-Link.com,2013-04-06 17:19:00,
2013-04-06 12:49:00,74.5,-32.1,29.87,NNW,337,0.0,-999.0,1,-99.99,,,0.00,Acu-Link.com,2013-04-06 17:49:00,
2013-04-06 13:19:00,75.2,-31.7,29.86,SSW,202,4.7,-999.0,1,-99.99,,,0.00,Acu-Link.com,2013-04-06 18:19:00,
2013-04-06 13:34:00,72.9,-33.1,29.85,SSW,202,6.3,-999.0,1,-99.99,,,0.00,Acu-Link.com,2013-04-06 18:34:00,
2013-04-06 13:49:00,76.1,-31.2,29.84,South,180,3.2,-999.0,1,-99.99,,,0.00,Acu-Link.com,2013-04-06 18:49:00,
2013-04-06 14:04:00,73.8,-32.5,29.83,SW,225,7.3,-999.0,1,-99.99,,,0.00,Acu-Link.com,2013-04-06 19:04:00,
2013-04-06 14:20:00,74.7,-32.0,29.82,South,180,5.8,-999.0,1,-99.99,,,0.00,Acu-Link.com,2013-04-06 19:20:00,
2013-04-06 14:35:00,75.7,-31.4,29.81,South,180,4.2,-999.0,1,-99.99,,,0.00,Acu-Link.com,2013-04-06 19:35:00,
2013-04-06 14:50:00,77.9,-30.1,29.80,South,180,3.2,-999.0,1,-99.99,,,0.00,Acu-Link.com,2013-04-06 19:50:00,
2013-04-06 15:05:00,76.6,-30.9,29.80,South,180,5.8,-999.0,1,-99.99,,,0.00,Acu-Link.com,2013-04-06 20:05:00,
2013-04-06 15:20:00,76.5,-30.9,29.79,South,180,6.3,-999.0,1,-99.99,,,0.00,Acu-Link.com,2013-04-06 20:20:00,
2013-04-06 15:35:00,77.4,-30.4,29.79,South,180,5.3,-999.0,1,-99.99,,,0.00,Acu-Link.com,2013-04-06 20:35:00,
2013-04-06 15:50:00,78.6,-29.7,29.78,ESE,112,4.2,-999.0,1,-99.99,,,0.00,Acu-Link.com,2013-04-06 20:50:00,
2013-04-06 16:05:00,79.2,-29.3,29.77,NNE,22,5.3,-999.0,1,-99.99,,,0.00,Acu-Link.com,2013-04-06 21:05:00,
2013-04-06 16:20:00,78.4,-29.8,29.77,South,180,6.3,-999.0,1,-99.99,,,0.00,Acu-Link.com,2013-04-06 21:20:00,
2013-04-06 16:36:00,78.1,-30.0,29.76,SSE,157,4.7,-999.0,1,-99.99,,,0.00,Acu-Link.com,2013-04-06 21:36:00,
2013-04-06 17:06:00,78.3,-29.9,29.75,SSE,157,6.3,-999.0,1,-99.99,,,0.00,Acu-Link.com,2013-04-06 22:06:00,
2013-04-06 17:36:00,76.8,-30.7,29.74,SSE,157,4.7,-999.0,1,-99.99,,,0.00,Acu-Link.com,2013-04-06 22:36:00,
2013-04-06 18:06:00,77.0,-30.6,29.73,SE,135,9.9,-999.0,1,-99.99,,,0.00,Acu-Link.com,2013-04-06 23:06:00,
2013-04-06 18:21:00,76.5,-30.9,29.73,South,180,3.2,-999.0,1,-99.99,,,0.00,Acu-Link.com,2013-04-06 23:21:00,
2013-04-06 18:36:00,75.0,-31.8,29.73,South,180,4.7,-999.0,1,-99.99,,,0.00,Acu-Link.com,2013-04-06 23:36:00,
2013-04-06 18:52:00,73.4,-32.8,29.73,SSE,157,2.2,-999.0,1,-99.99,,,0.00,Acu-Link.com,2013-04-06 23:52:00,
2013-04-06 19:07:00,71.1,-34.2,29.73,SSW,202,5.8,-999.0,1,-99.99,,,0.00,Acu-Link.com,2013-04-07 00:07:00,
2013-04-06 19:22:00,69.3,-35.2,29.72,SSW,202,2.2,-999.0,1,-99.99,,,0.00,Acu-Link.com,2013-04-07 00:22:00,
2013-04-06 20:07:00,62.8,-39.2,29.74,South,180,0.0,-999.0,1,-99.99,,,0.00,Acu-Link.com,2013-04-07 01:07:00,
2013-04-06 20:22:00,63.9,-38.5,29.74,SE,135,0.0,-999.0,1,-99.99,,,0.00,Acu-Link.com,2013-04-07 01:22:00,
2013-04-06 20:37:00,62.8,-39.2,29.74,SSE,157,0.0,-999.0,1,-99.99,,,0.00,Acu-Link.com,2013-04-07 01:37:00,
2013-04-06 20:52:00,64.0,-38.4,29.75,SSW,202,3.2,-999.0,1,-99.99,,,0.00,Acu-Link.com,2013-04-07 01:52:00,
2013-04-06 21:08:00,63.7,-38.6,29.76,SSE,157,4.2,-999.0,1,-99.99,,,0.00,Acu-Link.com,2013-04-07 02:08:00,
2013-04-06 21:53:00,62.4,-39.4,29.78,South,180,4.7,-999.0,1,-99.99,,,0.00,Acu-Link.com,2013-04-07 02:53:00,
2013-04-06 22:08:00,61.7,-39.8,29.79,South,180,5.8,-999.0,1,-99.99,,,0.00,Acu-Link.com,2013-04-07 03:08:00,
2013-04-06 22:23:00,61.3,-40.1,29.79,SSE,157,3.2,-999.0,1,-99.99,,,0.00,Acu-Link.com,2013-04-07 03:23:00,
2013-04-06 22:38:00,60.6,-40.5,29.79,ESE,112,3.2,-999.0,1,-99.99,,,0.00,Acu-Link.com,2013-04-07 03:38:00,
2013-04-06 22:53:00,60.8,-40.4,29.80,SSE,157,4.2,-999.0,1,-99.99,,,0.00,Acu-Link.com,2013-04-07 03:53:00,
2013-04-06 23:39:00,59.7,-41.0,29.79,East,90,2.7,-999.0,1,-99.99,,,0.00,Acu-Link.com,2013-04-07 04:39:00,
2013-04-06 23:54:00,59.2,-41.3,29.80,SE,135,4.2,-999.0,1,-99.99,,,0.00,Acu-Link.com,2013-04-07 04:54:00,